HST 1 20580U 90037B 24349.07812447 .00007915 00000-0 33061-3 0 9997 2 20580 28.4671 216.5381 0001815 205.1397 154.9108 15.21753782704687 ISS (ZARYA) 1 25544U 98067A 24349.15267406 .00014916 00000-0 26335-3 0 9996 2 25544 51.6372 143.7602 0007426 339.1508 20.9177 15.50566691486465 CXO 1 25867U 99040B 24347.67995738 .00000403 00000-0 00000-0 0 9991 2 25867 45.2638 139.9696 8693340 305.0901 0.0820 0.37810292 15235